CHX42 EDXR-EDXR

Flight info

Callsign CHX42
Flight time 0h 39m
Altitude 1000
Route VFR
Aircraft EC45/L-VGD/A

Departure

Time 2026-05-06 12:44
Airport Rendsburg-Schachtholm Airfield (EDXR)

Arrival

Time 2026-05-06 13:23
Airport Rendsburg-Schachtholm Airfield (EDXR)
Time Latitude Longitude Altitude Speed Heading
2026-05-06 12:28 54.21697 9.59985 27 ft 0 kts 213°
2026-05-06 12:44 54.21771 9.60096 159 ft 50 kts 43°
2026-05-06 12:44 54.22128 9.59762 280 ft 110 kts 270°
2026-05-06 12:44 54.21883 9.58364 490 ft 137 kts 257°
2026-05-06 12:44 54.21598 9.56679 657 ft 153 kts 258°
2026-05-06 12:45 54.21338 9.54887 828 ft 155 kts 259°
2026-05-06 12:45 54.21172 9.53078 898 ft 154 kts 273°
2026-05-06 12:45 54.21184 9.49339 895 ft 160 kts 276°
2026-05-06 12:46 54.21224 9.47432 876 ft 160 kts 277°
2026-05-06 12:46 54.21345 9.45557 894 ft 159 kts 284°
2026-05-06 12:46 54.21529 9.43692 885 ft 160 kts 285°
2026-05-06 12:46 54.21748 9.41840 873 ft 157 kts 286°
2026-05-06 12:47 54.21968 9.40031 874 ft 154 kts 287°
2026-05-06 12:47 54.22184 9.38245 904 ft 152 kts 296°
2026-05-06 12:47 54.22790 9.36765 897 ft 155 kts 316°
2026-05-06 12:47 54.23484 9.35358 907 ft 155 kts 318°
2026-05-06 12:48 54.24190 9.33970 896 ft 154 kts 319°
2026-05-06 12:48 54.24897 9.32597 893 ft 154 kts 319°
2026-05-06 12:48 54.25606 9.31234 892 ft 153 kts 319°
2026-05-06 12:48 54.26318 9.29893 892 ft 150 kts 319°
2026-05-06 12:49 54.27014 9.28591 897 ft 148 kts 319°
2026-05-06 12:49 54.27720 9.27291 896 ft 151 kts 319°
2026-05-06 12:49 54.28424 9.25968 891 ft 149 kts 318°
2026-05-06 12:49 54.29122 9.24651 895 ft 150 kts 317°
2026-05-06 12:50 54.29826 9.23331 896 ft 150 kts 317°
2026-05-06 12:50 54.30531 9.22000 892 ft 151 kts 317°
2026-05-06 12:50 54.31221 9.20648 889 ft 150 kts 316°
2026-05-06 12:50 54.31886 9.19286 894 ft 148 kts 315°
2026-05-06 12:51 54.32536 9.17920 897 ft 147 kts 315°
2026-05-06 12:51 54.33184 9.16557 905 ft 149 kts 315°
2026-05-06 12:51 54.33852 9.15170 901 ft 152 kts 315°
2026-05-06 12:51 54.34531 9.13772 892 ft 153 kts 315°
2026-05-06 12:52 54.35200 9.12375 895 ft 150 kts 315°
2026-05-06 12:52 54.35831 9.11031 688 ft 137 kts 315°
2026-05-06 12:52 54.36359 9.09841 582 ft 114 kts 314°
2026-05-06 12:52 54.36808 9.08877 558 ft 94 kts 318°
2026-05-06 12:53 54.37248 9.08271 575 ft 73 kts
2026-05-06 12:53 54.37582 9.08752 476 ft 72 kts 91°
2026-05-06 12:53 54.37183 9.09074 432 ft 69 kts 206°
2026-05-06 12:53 54.37108 9.08553 441 ft 33 kts 323°
2026-05-06 12:54 54.37226 9.08396 400 ft 11 kts 337°
2026-05-06 12:54 54.37289 9.08329 320 ft 9 kts 339°
2026-05-06 12:54 54.37348 9.08244 227 ft 15 kts
2026-05-06 12:54 54.37407 9.08230 175 ft 8 kts 21°
2026-05-06 12:55 54.37453 9.08251 106 ft 6 kts 45°
2026-05-06 12:55 54.37472 9.08263 30 ft 1 kts 43°
2026-05-06 12:55 54.37486 9.08270 25 ft 3 kts 43°
2026-05-06 12:55 54.37501 9.08283 22 ft 3 kts 41°
2026-05-06 12:56 54.37505 9.08286 12 ft 0 kts 41°
2026-05-06 13:14 54.37497 9.08278 50 ft 5 kts 41°
2026-05-06 13:14 54.37441 9.08201 194 ft 12 kts 41°
2026-05-06 13:14 54.37587 9.08663 261 ft 89 kts 88°
2026-05-06 13:14 54.36958 9.09408 367 ft 129 kts 148°
2026-05-06 13:15 54.36115 9.10284 546 ft 149 kts 138°
2026-05-06 13:15 54.35259 9.11418 649 ft 156 kts 136°
2026-05-06 13:15 54.34416 9.12577 694 ft 159 kts 134°
2026-05-06 13:15 54.33597 9.13825 693 ft 155 kts 133°
2026-05-06 13:16 54.32833 9.15109 703 ft 153 kts 129°
2026-05-06 13:16 54.32115 9.16421 698 ft 148 kts 127°
2026-05-06 13:16 54.31429 9.17697 701 ft 144 kts 126°
2026-05-06 13:16 54.30742 9.18962 705 ft 145 kts 126°
2026-05-06 13:17 54.30046 9.20238 704 ft 148 kts 127°
2026-05-06 13:17 54.29342 9.21535 701 ft 149 kts 127°
2026-05-06 13:17 54.28640 9.22841 700 ft 149 kts 126°
2026-05-06 13:17 54.27978 9.24230 710 ft 151 kts 123°
2026-05-06 13:18 54.27354 9.25675 703 ft 151 kts 121°
2026-05-06 13:18 54.26747 9.27115 702 ft 148 kts 120°
2026-05-06 13:18 54.26132 9.28522 699 ft 147 kts 120°
2026-05-06 13:18 54.25502 9.29914 702 ft 148 kts 120°
2026-05-06 13:19 54.24862 9.31307 701 ft 149 kts 120°
2026-05-06 13:19 54.24375 9.32881 684 ft 153 kts 104°
2026-05-06 13:19 54.24051 9.34598 703 ft 150 kts 101°
2026-05-06 13:19 54.23756 9.36299 708 ft 149 kts 101°
2026-05-06 13:20 54.23500 9.37964 711 ft 147 kts 100°
2026-05-06 13:20 54.23255 9.39670 709 ft 149 kts 99°
2026-05-06 13:20 54.22994 9.41369 705 ft 147 kts 99°
2026-05-06 13:20 54.22722 9.43050 707 ft 145 kts 99°
2026-05-06 13:21 54.22450 9.44693 713 ft 143 kts 100°
2026-05-06 13:21 54.22196 9.46347 713 ft 143 kts 99°
2026-05-06 13:21 54.21935 9.47995 721 ft 145 kts 100°
2026-05-06 13:21 54.21670 9.49669 601 ft 144 kts 99°
2026-05-06 13:22 54.21404 9.51243 507 ft 125 kts 101°
2026-05-06 13:22 54.21266 9.52640 474 ft 124 kts 94°
2026-05-06 13:22 54.21123 9.54206 502 ft 142 kts 95°
2026-05-06 13:22 54.20976 9.55907 489 ft 146 kts 94°
2026-05-06 13:23 54.20853 9.57460 492 ft 117 kts 85°
2026-05-06 13:23 54.21089 9.58717 378 ft 107 kts 54°
2026-05-06 13:23 54.21551 9.59418 156 ft 64 kts 35°
2026-05-06 13:23 54.21744 9.59652 44 ft 9 kts 37°
2026-05-06 13:24 54.21758 9.59719 37 ft 8 kts 131°
2026-05-06 13:24 54.21732 9.59814 36 ft 12 kts 124°
2026-05-06 13:24 54.21705 9.59922 36 ft 7 kts 101°
2026-05-06 13:24 54.21705 9.59987 33 ft 3 kts 213°
2026-05-06 13:25 54.21697 9.59983 30 ft 1 kts 202°
2026-05-06 13:25 54.21695 9.59983 27 ft 0 kts 219°
2026-05-06 14:03 54.21720 9.60025 94 ft 33 kts 47°
2026-05-06 14:03 54.21828 9.60748 255 ft 97 kts 107°
2026-05-06 14:03 54.21067 9.60948 396 ft 141 kts 205°
2026-05-06 14:04 54.20175 9.60107 702 ft 154 kts 207°
2026-05-06 14:04 54.19513 9.58678 731 ft 168 kts 258°
2026-05-06 14:04 54.19014 9.56950 723 ft 168 kts 217°
2026-05-06 14:04 54.17917 9.56351 733 ft 166 kts 186°
2026-05-06 14:05 54.16781 9.56589 726 ft 163 kts 157°
2026-05-06 14:05 54.15734 9.57314 678 ft 160 kts 152°
2026-05-06 14:05 54.14729 9.58095 667 ft 157 kts 150°
2026-05-06 14:05 54.13779 9.58954 645 ft 153 kts 145°
2026-05-06 14:06 54.12857 9.59826 636 ft 150 kts 144°
2026-05-06 14:06 54.11956 9.60692 641 ft 148 kts 142°
2026-05-06 14:06 54.11111 9.61641 609 ft 139 kts 139°
2026-05-06 14:06 54.10354 9.62571 527 ft 132 kts 138°
2026-05-06 14:07 54.09654 9.63488 491 ft 115 kts 135°
2026-05-06 14:07 54.09171 9.64275 567 ft 81 kts 109°
2026-05-06 14:07 54.09093 9.64972 438 ft 34 kts 84°
2026-05-06 14:07 54.09066 9.65136 323 ft 2 kts 82°
2026-05-06 14:08 54.09070 9.65147 322 ft 6 kts 81°
2026-05-06 14:08 54.09043 9.65244 308 ft 6 kts 113°
2026-05-06 14:08 54.09002 9.65263 309 ft 12 kts 269°
2026-05-06 14:08 54.08936 9.65111 311 ft 13 kts 269°
2026-05-06 14:09 54.08914 9.65050 308 ft 9 kts 33°
2026-05-06 14:09 54.08923 9.65035 300 ft 3 kts 33°
2026-05-06 14:09 54.08938 9.65033 233 ft 1 kts 33°
2026-05-06 14:09 54.08944 9.65043 211 ft 1 kts 44°
2026-05-06 14:10 54.08947 9.65048 201 ft 1 kts 43°
2026-05-06 14:10 54.08949 9.65053 196 ft 0 kts 87°
2026-05-06 14:10 54.08949 9.65056 196 ft 0 kts 86°
2026-05-06 14:23 54.08950 9.65041 252 ft 8 kts 85°
2026-05-06 14:24 54.08959 9.64882 497 ft 17 kts 41°
2026-05-06 14:24 54.09244 9.65325 711 ft 73 kts 45°
2026-05-06 14:24 54.09674 9.66095 691 ft 123 kts 47°
2026-05-06 14:24 54.10320 9.67271 830 ft 138 kts 47°
2026-05-06 14:25 54.10978 9.68476 927 ft 142 kts 48°
2026-05-06 14:25 54.11679 9.69738 920 ft 149 kts 47°
2026-05-06 14:25 54.12388 9.71039 891 ft 149 kts 48°
2026-05-06 14:25 54.13038 9.72348 808 ft 138 kts 50°
2026-05-06 14:26 54.13609 9.73581 863 ft 130 kts 51°
2026-05-06 14:26 54.14168 9.74821 924 ft 135 kts 50°
2026-05-06 14:26 54.14764 9.76126 914 ft 141 kts 51°
2026-05-06 14:26 54.15372 9.77440 923 ft 142 kts 51°
2026-05-06 14:27 54.15983 9.78776 921 ft 144 kts 51°
2026-05-06 14:27 54.16614 9.80109 914 ft 143 kts 50°
2026-05-06 14:27 54.17242 9.81438 917 ft 144 kts 49°
2026-05-06 14:27 54.17874 9.82791 909 ft 144 kts 50°
2026-05-06 14:28 54.18500 9.84098 909 ft 141 kts 49°
2026-05-06 14:28 54.19114 9.85396 915 ft 142 kts 50°
2026-05-06 14:28 54.19745 9.86721 917 ft 145 kts 50°
2026-05-06 14:28 54.20379 9.88032 907 ft 144 kts 50°
2026-05-06 14:29 54.21007 9.89342 920 ft 141 kts 50°
2026-05-06 14:29 54.21632 9.90650 925 ft 142 kts 50°
2026-05-06 14:29 54.22254 9.91955 928 ft 141 kts 50°
2026-05-06 14:29 54.22878 9.93241 929 ft 140 kts 50°
2026-05-06 14:30 54.23492 9.94498 927 ft 134 kts 50°
2026-05-06 14:30 54.24079 9.95694 942 ft 128 kts 50°
2026-05-06 14:30 54.24664 9.96881 943 ft 132 kts 50°
2026-05-06 14:30 54.25275 9.98111 955 ft 137 kts 50°
2026-05-06 14:31 54.25918 9.99383 952 ft 140 kts 49°
2026-05-06 14:31 54.26569 10.00679 628 ft 152 kts 49°
2026-05-06 14:31 54.27238 10.01965 591 ft 135 kts 49°
2026-05-06 14:31 54.27858 10.03158 694 ft 136 kts 49°
2026-05-06 14:32 54.28466 10.04444 728 ft 140 kts 52°
2026-05-06 14:32 54.29065 10.05770 729 ft 142 kts 53°
2026-05-06 14:32 54.29680 10.07139 724 ft 147 kts 53°
2026-05-06 14:32 54.30262 10.08483 590 ft 137 kts 53°
2026-05-06 14:33 54.30799 10.09757 438 ft 122 kts 56°
2026-05-06 14:33 54.31245 10.10825 447 ft 99 kts 53°
2026-05-06 14:33 54.31643 10.11698 483 ft 90 kts 51°
2026-05-06 14:33 54.32040 10.12501 476 ft 87 kts 49°
2026-05-06 14:34 54.32449 10.13204 408 ft 77 kts 47°
2026-05-06 14:34 54.32790 10.13679 356 ft 48 kts 41°
2026-05-06 14:34 54.32965 10.13984 281 ft 23 kts 55°
2026-05-06 14:34 54.33046 10.14149 224 ft 17 kts 57°
2026-05-06 14:35 54.33092 10.14248 168 ft 4 kts 58°
2026-05-06 14:35 54.33100 10.14269 154 ft 1 kts 59°
2026-05-06 14:35 54.33104 10.14278 146 ft 0 kts 59°
2026-05-06 14:52 54.33123 10.14329 298 ft 40 kts 59°
2026-05-06 14:52 54.33110 10.15084 400 ft 102 kts 139°
2026-05-06 14:52 54.32435 10.14467 655 ft 138 kts 248°
2026-05-06 14:53 54.32215 10.12785 653 ft 153 kts 259°
2026-05-06 14:53 54.32057 10.10961 730 ft 159 kts 264°
2026-05-06 14:53 54.31874 10.09062 709 ft 167 kts 260°
2026-05-06 14:53 54.31594 10.07113 670 ft 164 kts 256°
2026-05-06 14:54 54.31297 10.05259 671 ft 160 kts 256°
2026-05-06 14:54 54.30999 10.03442 684 ft 161 kts 255°
2026-05-06 14:54 54.30704 10.01583 687 ft 161 kts 255°
2026-05-06 14:54 54.30372 9.99728 684 ft 160 kts 253°
2026-05-06 14:55 54.30018 9.97888 687 ft 164 kts 252°
2026-05-06 14:55 54.29652 9.96061 682 ft 161 kts 251°
2026-05-06 14:55 54.29278 9.94258 682 ft 161 kts 251°
2026-05-06 14:55 54.28872 9.92486 676 ft 157 kts 248°
2026-05-06 14:56 54.28421 9.90821 682 ft 153 kts 245°
2026-05-06 14:56 54.27957 9.89210 690 ft 151 kts 245°
2026-05-06 14:56 54.27492 9.87595 714 ft 152 kts 245°
2026-05-06 14:56 54.27022 9.85955 713 ft 155 kts 245°
2026-05-06 14:57 54.26549 9.84290 709 ft 156 kts 246°
2026-05-06 14:57 54.26058 9.82611 715 ft 158 kts 245°
2026-05-06 14:57 54.25579 9.80900 709 ft 159 kts 246°
2026-05-06 14:57 54.25120 9.79163 692 ft 161 kts 248°
2026-05-06 14:58 54.24683 9.77398 713 ft 161 kts 249°
2026-05-06 14:58 54.24238 9.75616 706 ft 163 kts 249°
2026-05-06 14:58 54.23797 9.73852 698 ft 160 kts 249°
2026-05-06 14:58 54.23351 9.72099 696 ft 163 kts 249°
2026-05-06 14:59 54.22895 9.70293 706 ft 165 kts 249°
2026-05-06 14:59 54.22457 9.68475 710 ft 167 kts 250°
2026-05-06 14:59 54.22001 9.66643 706 ft 167 kts 249°
2026-05-06 14:59 54.21559 9.64830 625 ft 160 kts 249°
2026-05-06 15:00 54.21140 9.63159 548 ft 147 kts 249°
2026-05-06 15:00 54.20749 9.61614 482 ft 137 kts 249°
2026-05-06 15:00 54.20474 9.60157 483 ft 118 kts 279°
2026-05-06 15:00 54.20974 9.59416 383 ft 102 kts
2026-05-06 15:01 54.21584 9.59462 165 ft 74 kts 48°
2026-05-06 15:01 54.21876 9.59808 35 ft 22 kts 41°
2026-05-06 15:01 54.21904 9.59892 46 ft 16 kts 108°
2026-05-06 15:01 54.21823 9.60149 34 ft 24 kts 127°
2026-05-06 15:02 54.21779 9.60237 30 ft 3 kts 199°
2026-05-06 15:02 54.21748 9.60200 27 ft 6 kts 221°
2026-05-06 15:02 54.21712 9.60140 28 ft 9 kts 228°
2026-05-06 15:02 54.21675 9.60071 29 ft 6 kts 226°
2026-05-06 15:03 54.21666 9.60012 31 ft 7 kts 316°
2026-05-06 15:03 54.21694 9.59983 36 ft 6 kts 45°
2026-05-06 15:03 54.21697 9.60002 30 ft 2 kts 209°
2026-05-06 15:03 54.21691 9.59997 27 ft 0 kts 219°